"Datum/tijd (MEZT)";"astronomisch [cm]";"waterstand [cm]";"verwachte opzet";"verwachting RWS"
2024-05-10 17:00;-126;-123;1;-125
2024-05-10 17:10;-130;-128;1;-129
2024-05-10 17:20;-133;-132;1;-132
2024-05-10 17:30;-134;-134;0;-134
2024-05-10 17:40;-134;-135;-1;-135
2024-05-10 17:50;-131;-134;-3;-134
2024-05-10 18:00;-126;-131;-6;-132
2024-05-10 18:10;-118;-126;-8;-126
2024-05-10 18:20;-109;-116;-7;-116
2024-05-10 18:30;-99;-104;-4;-103
2024-05-10 18:40;-88;-89;1;-87
2024-05-10 18:50;-77;-73;6;-71
2024-05-10 19:00;-65;-61;6;-59
2024-05-10 19:10;-55;-49;8;-47
2024-05-10 19:20;-45;-38;9;-36
2024-05-10 19:30;-36;-28;9;-27
2024-05-10 19:40;-29;-19;10;-19
2024-05-10 19:50;-22;-12;11;-11
2024-05-10 20:00;-17;-6;13;-4
2024-05-10 20:10;-11;0;12;1
2024-05-10 20:20;-6;5;13;7
2024-05-10 20:30;0;11;13;13
2024-05-10 20:40;6;17;13;19
2024-05-10 20:50;12;23;12;24
2024-05-10 21:00;18;28;12;30
2024-05-10 21:10;24;34;11;35
2024-05-10 21:20;31;39;9;40
2024-05-10 21:30;37;44;8;45
2024-05-10 21:40;43;48;7;50
2024-05-10 21:50;48;53;7;55
2024-05-10 22:00;54;57;5;59
2024-05-10 22:10;58;61;5;63
2024-05-10 22:20;63;65;3;66
2024-05-10 22:30;67;69;2;69
2024-05-10 22:40;70;73;2;72
2024-05-10 22:50;73;75;2;75
2024-05-10 23:00;76;77;1;77
2024-05-10 23:10;78;80;1;79
2024-05-10 23:20;79;81;1;80
2024-05-10 23:30;80;81;0;80
2024-05-10 23:40;80;82;-2;78
2024-05-10 23:50;78;80;-2;76
2024-05-11 00:00;76;78;-4;72
2024-05-11 00:10;73;75;-5;70
2024-05-11 00:20;69;71;-6;67
2024-05-11 00:30;65;65;-8;65
2024-05-11 00:40;59;58;-8;58
2024-05-11 00:50;53;51;-7;51
2024-05-11 01:00;47;44;-2;45
2024-05-11 01:10;40;37;-1;39
2024-05-11 01:20;33;30;0;33
2024-05-11 01:30;26;23;0;26
2024-05-11 01:40;19;17;1;20
2024-05-11 01:50;12;10;1;13
2024-05-11 02:00;6;3;-1;5
2024-05-11 02:10;-1;-4;0;-1
2024-05-11 02:20;-7;-10;-1;-8
2024-05-11 02:30;-13;-16;-1;-14
2024-05-11 02:40;-19;-21;-1;-20
2024-05-11 02:50;-25;-27;-1;-26
2024-05-11 03:00;-31;-32;-2;-33
2024-05-11 03:10;-37;-38;-2;-39
2024-05-11 03:20;-43;-44;-2;-45
2024-05-11 03:30;-50;-50;-1;-51
2024-05-11 03:40;-56;-56;-1;-57
2024-05-11 03:50;-63;-62;0;-63
2024-05-11 04:00;-69;-68;0;-69
2024-05-11 04:10;-76;-74;1;-75
2024-05-11 04:20;-82;-79;1;-81
2024-05-11 04:30;-88;-86;1;-87
2024-05-11 04:40;-94;-93;1;-93
2024-05-11 04:50;-99;-98;-1;-100
2024-05-11 05:00;-104;-103;1;-103
2024-05-11 05:10;-109;-108;0;-109
2024-05-11 05:20;-113;-112;0;-113
2024-05-11 05:30;-116;-116;-1;-117
2024-05-11 05:40;-118;-118;-1;-119
2024-05-11 05:50;-118;-119;-2;-120
2024-05-11 06:00;-116;-120;-5;-121
2024-05-11 06:10;-113;-118;-6;-119
2024-05-11 06:20;-107;-114;-8;-115
2024-05-11 06:30;-100;-108;-9;-109
2024-05-11 06:40;-90;-98;-9;-99
2024-05-11 06:50;-80;-85;-5;-85
2024-05-11 07:00;-69;-71;-1;-70
2024-05-11 07:10;-58;-57;2;-56
2024-05-11 07:20;-47;-45;4;-43
2024-05-11 07:30;-36;-34;4;-32
2024-05-11 07:40;-27;-24;5;-22
2024-05-11 07:50;-19;-15;6;-13
2024-05-11 08:00;-12;-7;6;-6
2024-05-11 08:10;-6;-1;7;1
2024-05-11 08:20;-1;5;8;7
2024-05-11 08:30;4;10;8;12
2024-05-11 08:40;9;16;9;18
2024-05-11 08:50;14;21;9;23
2024-05-11 09:00;20;26;8;28
2024-05-11 09:10;26;32;7;33
2024-05-11 09:20;32;37;6;38
2024-05-11 09:30;38;42;5;43
2024-05-11 09:40;45;47;3;48
2024-05-11 09:50;51;51;2;53
2024-05-11 10:00;56;56;2;58
2024-05-11 10:10;62;61;0;62
2024-05-11 10:20;67;65;-1;66
2024-05-11 10:30;71;70;-1;70
2024-05-11 10:40;75;74;-1;74
2024-05-11 10:50;78;77;-1;77
2024-05-11 11:00;81;79;-1;80
2024-05-11 11:10;83;82;-1;82
2024-05-11 11:20;85;84;-1;84
2024-05-11 11:30;87;86;-2;85
2024-05-11 11:40;87;86;-2;85
2024-05-11 11:50;87;87;-3;84
2024-05-11 12:00;87;86;-4;83
2024-05-11 12:10;85;84;-5;80
2024-05-11 12:20;82;82;-6;76
2024-05-11 12:30;79;78;-8;71
2024-05-11 12:40;74;73;-9;65
2024-05-11 12:50;69;67;-10;59
2024-05-11 13:00;63;60;-5;58
2024-05-11 13:10;57;53;-5;52
2024-05-11 13:20;50;45;-5;45
2024-05-11 13:30;43;38;-4;39
2024-05-11 13:40;35;31;-3;32
2024-05-11 13:50;27;23;-1;26
2024-05-11 14:00;20;16;-1;19
2024-05-11 14:10;13;9;-1;12
2024-05-11 14:20;5;2;-1;4
2024-05-11 14:30;-1;-5;-2;-3
2024-05-11 14:40;-8;-12;-2;-10
2024-05-11 14:50;-14;-18;-3;-17
2024-05-11 15:00;-20;-25;-3;-23
2024-05-11 15:10;-26;-30;-4;-30
2024-05-11 15:20;-32;-37;-4;-36
2024-05-11 15:30;-38;-43;-4;-42
2024-05-11 15:40;-45;-49;-4;-49
2024-05-11 15:50;-51;-55;-4;-55
2024-05-11 16:00;-58;-62;-4;-62
2024-05-11 16:10;-65;-68;-3;-68
2024-05-11 16:20;-73;-75;-1;-74
2024-05-11 16:30;-80;-81;-1;-81
2024-05-11 16:40;-87;-87;0;-87
2024-05-11 16:50;-93;-94;0;-93
2024-05-11 17:00;-100;-100;1;-99
2024-05-11 17:10;-106;-106;0;-106
2024-05-11 17:20;-112;-111;0;-112
2024-05-11 17:30;-117;-117;0;-117
2024-05-11 17:40;-122;-122;0;-122
2024-05-11 17:50;-126;-126;0;-126
2024-05-11 18:00;-128;-129;-2;-130
2024-05-11 18:10;-129;-131;-3;-132
2024-05-11 18:20;-129;-133;-5;-134
2024-05-11 18:30;-126;-132;-8;-134
2024-05-11 18:40;-122;-131;-10;-132
2024-05-11 18:50;-116;-126;-11;-127
2024-05-11 19:00;-108;-119;-12;-120
2024-05-11 19:10;-99;-109;-10;-109
2024-05-11 19:20;-89;-96;-6;-95
2024-05-11 19:30;-78;-82;-1;-79
2024-05-11 19:40;-68;-69;3;-65
2024-05-11 19:50;-58;-58;5;-53
2024-05-11 20:00;-49;-46;7;-42
2024-05-11 20:10;-41;-36;9;-32
2024-05-11 20:20;-34;-27;10;-24
2024-05-11 20:30;-28;-19;12;-16
2024-05-11 20:40;-22;-13;12;-10
2024-05-11 20:50;-16;-7;11;-5
2024-05-11 21:00;-11;-2;11;0
2024-05-11 21:10;-6;3;11;5
2024-05-11 21:20;0;9;10;10
2024-05-11 21:30;6;14;8;14
2024-05-11 21:40;12;19;7;19
2024-05-11 21:50;18;24;5;23
2024-05-11 22:00;23;29;4;27
2024-05-11 22:10;29;34;2;31
2024-05-11 22:20;35;38;0;35
2024-05-11 22:30;40;42;-1;39
2024-05-11 22:40;44;45;-1;43
2024-05-11 22:50;49;;-2;47
2024-05-11 23:00;53;;-2;51
2024-05-11 23:10;56;;-2;54
2024-05-11 23:20;60;;-2;58
2024-05-11 23:30;63;;-2;61
2024-05-11 23:40;65;;-2;63
2024-05-11 23:50;67;;-2;65
2024-05-12 00:00;68;;-1;67
2024-05-12 00:10;69;;-2;67
2024-05-12 00:20;68;;-1;67
2024-05-12 00:30;67;;-1;66
2024-05-12 00:40;65;;-2;63
2024-05-12 00:50;63;;-4;59
2024-05-12 01:00;59;;-5;54
2024-05-12 01:10;55;;-7;48
2024-05-12 01:20;50;;-8;42
2024-05-12 01:30;44;;-9;35
2024-05-12 01:40;38;;-10;28
2024-05-12 01:50;32;;-11;21
2024-05-12 02:00;26;;-11;15
2024-05-12 02:10;19;;-10;9
2024-05-12 02:20;13;;-10;3
2024-05-12 02:30;6;;-8;-2
2024-05-12 02:40;0;;-8;-8
2024-05-12 02:50;-6;;-8;-14
2024-05-12 03:00;-12;;-8;-20
2024-05-12 03:10;-17;;-9;-26
2024-05-12 03:20;-23;;-9;-32
2024-05-12 03:30;-28;;-10;-38
2024-05-12 03:40;-34;;-9;-43
2024-05-12 03:50;-40;;-9;-49
2024-05-12 04:00;-46;;-9;-55
2024-05-12 04:10;-52;;-8;-60
2024-05-12 04:20;-58;;-8;-66
2024-05-12 04:30;-65;;-7;-72
2024-05-12 04:40;-71;;-7;-78
2024-05-12 04:50;-77;;-6;-83
2024-05-12 05:00;-83;;-6;-89
2024-05-12 05:10;-89;;-4;-93
2024-05-12 05:20;-94;;-6;-100
2024-05-12 05:30;-99;;-6;-105
2024-05-12 05:40;-103;;-8;-111
2024-05-12 05:50;-107;;-8;-115
2024-05-12 06:00;-110;;-9;-119
2024-05-12 06:10;-112;;-10;-122
2024-05-12 06:20;-112;;-13;-125
2024-05-12 06:30;-112;;-14;-126
2024-05-12 06:40;-110;;-15;-125
2024-05-12 06:50;-106;;-17;-123
2024-05-12 07:00;-100;;-19;-119
2024-05-12 07:10;-93;;-18;-111
2024-05-12 07:20;-85;;-15;-100
2024-05-12 07:30;-75;;-10;-85
2024-05-12 07:40;-65;;-5;-70
2024-05-12 07:50;-54;;-2;-56
2024-05-12 08:00;-44;;1;-43
2024-05-12 08:10;-35;;3;-32
2024-05-12 08:20;-26;;5;-21
2024-05-12 08:30;-18;;7;-11
2024-05-12 08:40;-11;;8;-3
2024-05-12 08:50;-4;;7;3
2024-05-12 09:00;1;;8;9
2024-05-12 09:10;7;;7;14
2024-05-12 09:20;12;;8;20
2024-05-12 09:30;17;;8;25
2024-05-12 09:40;23;;6;29
2024-05-12 09:50;28;;5;33
2024-05-12 10:00;34;;4;38
2024-05-12 10:10;40;;2;42
2024-05-12 10:20;46;;0;46
2024-05-12 10:30;52;;-2;50
2024-05-12 10:40;58;;-4;54
2024-05-12 10:50;63;;-5;58
2024-05-12 11:00;67;;-5;62
2024-05-12 11:10;71;;-5;66
2024-05-12 11:20;75;;-6;69
2024-05-12 11:30;78;;-5;73
2024-05-12 11:40;81;;-5;76
2024-05-12 11:50;83;;-4;79
2024-05-12 12:00;85;;-4;81
2024-05-12 12:10;87;;-5;82
2024-05-12 12:20;87;;-4;83
2024-05-12 12:30;87;;-4;83
2024-05-12 12:40;86;;-4;82
2024-05-12 12:50;84;;-4;80
2024-05-12 13:00;82;;-5;77
2024-05-12 13:10;78;;-5;73
2024-05-12 13:20;74;;-6;68
2024-05-12 13:30;69;;-7;62
2024-05-12 13:40;63;;-8;55
2024-05-12 13:50;56;;-8;48
2024-05-12 14:00;50;;-9;41
2024-05-12 14:10;42;;-8;34
2024-05-12 14:20;35;;-8;27
2024-05-12 14:30;28;;-7;21
2024-05-12 14:40;21;;-7;14
2024-05-12 14:50;13;;-6;7
2024-05-12 15:00;7;;-7;0
2024-05-12 15:10;0;;-7;-7
2024-05-12 15:20;-6;;-8;-14
2024-05-12 15:30;-12;;-8;-20
2024-05-12 15:40;-18;;-9;-27
2024-05-12 15:50;-24;;-9;-33
2024-05-12 16:00;-29;;-10;-39
2024-05-12 16:10;-35;;-11;-46
2024-05-12 16:20;-42;;-10;-52
2024-05-12 16:30;-48;;-10;-58
2024-05-12 16:40;-55;;-10;-65
2024-05-12 16:50;-62;;-9;-71
2024-05-12 17:00;-69;;-8;-77
2024-05-12 17:10;-75;;-8;-83
2024-05-12 17:20;-82;;-8;-90
2024-05-12 17:30;-89;;-8;-97
2024-05-12 17:40;-95;;-7;-102
2024-05-12 17:50;-100;;-9;-109
2024-05-12 18:00;-106;;-7;-113
2024-05-12 18:10;-110;;-8;-118
2024-05-12 18:20;-114;;-9;-123
2024-05-12 18:30;-117;;-10;-127
2024-05-12 18:40;-119;;-11;-130
2024-05-12 18:50;-120;;-12;-132
2024-05-12 19:00;-119;;-14;-133
2024-05-12 19:10;-117;;-16;-133
2024-05-12 19:20;-113;;-18;-131
2024-05-12 19:30;-108;;-18;-126
2024-05-12 19:40;-101;;-18;-119
2024-05-12 19:50;-94;;-14;-108
2024-05-12 20:00;-85;;-10;-95
2024-05-12 20:10;-76;;-4;-80
2024-05-12 20:20;-68;;0;-68
2024-05-12 20:30;-59;;2;-57
2024-05-12 20:40;-51;;5;-46
2024-05-12 20:50;-43;;6;-37
2024-05-12 21:00;-36;;7;-29
2024-05-12 21:10;-30;;7;-23
2024-05-12 21:20;-25;;8;-17
2024-05-12 21:30;-19;;7;-12
2024-05-12 21:40;-14;;7;-7
2024-05-12 21:50;-9;;7;-2
2024-05-12 22:00;-4;;6;2
2024-05-12 22:10;1;;5;6
2024-05-12 22:20;7;;2;9
2024-05-12 22:30;12;;1;13
2024-05-12 22:40;17;;-1;16
2024-05-12 22:50;22;;-3;19
2024-05-12 23:00;27;;-4;23
2024-05-12 23:10;31;;-5;26
2024-05-12 23:20;35;;-6;29
2024-05-12 23:30;39;;-6;33
2024-05-12 23:40;43;;-7;36
2024-05-12 23:50;46;;-7;39
2024-05-13 00:00;49;;-7;42
2024-05-13 00:10;51;;-5;46
2024-05-13 00:20;53;;-5;48
2024-05-13 00:30;55;;-5;50
2024-05-13 00:40;56;;-4;52
2024-05-13 00:50;56;;-3;53
2024-05-13 01:00;56;;-2;54
2024-05-13 01:10;55;;-2;53
2024-05-13 01:20;53;;-1;52
2024-05-13 01:30;50;;-1;49
2024-05-13 01:40;47;;-2;45
2024-05-13 01:50;43;;-2;41
2024-05-13 02:00;39;;-3;36
2024-05-13 02:10;34;;-4;30
2024-05-13 02:20;28;;-4;24
2024-05-13 02:30;22;;-5;17
2024-05-13 02:40;16;;-5;11
2024-05-13 02:50;10;;-5;5
2024-05-13 03:00;4;;-5;-1
2024-05-13 03:10;-2;;-4;-6
2024-05-13 03:20;-7;;-5;-12
2024-05-13 03:30;-13;;-4;-17
2024-05-13 03:40;-18;;-5;-23
2024-05-13 03:50;-23;;-5;-28
2024-05-13 04:00;-28;;-5;-33
2024-05-13 04:10;-33;;-5;-38
2024-05-13 04:20;-38;;-5;-43
2024-05-13 04:30;-44;;-4;-48
2024-05-13 04:40;-49;;-4;-53
2024-05-13 04:50;-55;;-3;-58
2024-05-13 05:00;-60;;-3;-63
2024-05-13 05:10;-66;;-2;-68
2024-05-13 05:20;-72;;-1;-73
2024-05-13 05:30;-77;;-1;-78
2024-05-13 05:40;-83;;1;-82
2024-05-13 05:50;-88;;1;-87
2024-05-13 06:00;-92;;0;-92
2024-05-13 06:10;-96;;1;-95
2024-05-13 06:20;-100;;0;-100
2024-05-13 06:30;-102;;-2;-104
2024-05-13 06:40;-104;;-3;-107
2024-05-13 06:50;-105;;-4;-109
2024-05-13 07:00;-105;;-5;-110
2024-05-13 07:10;-104;;-6;-110
2024-05-13 07:20;-102;;-6;-108
2024-05-13 07:30;-98;;-7;-105
2024-05-13 07:40;-92;;-6;-98
2024-05-13 07:50;-86;;-2;-88
2024-05-13 08:00;-78;;1;-77
2024-05-13 08:10;-70;;7;-63
2024-05-13 08:20;-61;;10;-51
2024-05-13 08:30;-51;;12;-39
2024-05-13 08:40;-42;;14;-28
2024-05-13 08:50;-33;;15;-18
2024-05-13 09:00;-25;;16;-9
2024-05-13 09:10;-17;;16;-1
2024-05-13 09:20;-10;;16;6
2024-05-13 09:30;-4;;17;13
2024-05-13 09:40;2;;17;19
2024-05-13 09:50;8;;16;24
2024-05-13 10:00;13;;16;29
2024-05-13 10:10;19;;15;34
2024-05-13 10:20;24;;14;38
2024-05-13 10:30;30;;13;43
2024-05-13 10:40;35;;13;48
2024-05-13 10:50;41;;11;52
2024-05-13 11:00;46;;10;56
2024-05-13 11:10;51;;9;60
2024-05-13 11:20;56;;8;64
2024-05-13 11:30;61;;8;69
2024-05-13 11:40;65;;8;73
2024-05-13 11:50;69;;8;77
2024-05-13 12:00;72;;9;81
2024-05-13 12:10;75;;9;84
2024-05-13 12:20;78;;9;87
2024-05-13 12:30;80;;10;90
2024-05-13 12:40;82;;9;91
2024-05-13 12:50;83;;9;92
2024-05-13 13:00;84;;8;92
2024-05-13 13:10;83;;9;92
2024-05-13 13:20;83;;8;91
2024-05-13 13:30;81;;8;89
2024-05-13 13:40;78;;8;86
2024-05-13 13:50;75;;7;82
2024-05-13 14:00;71;;6;77
2024-05-13 14:10;66;;4;70
2024-05-13 14:20;60;;3;63
2024-05-13 14:30;54;;1;55
2024-05-13 14:40;48;;0;48
2024-05-13 14:50;41;;0;41
2024-05-13 15:00;34;;-1;34
2024-05-13 15:10;27;;-1;26
2024-05-13 15:20;20;;-1;19
2024-05-13 15:30;14;;-2;12
2024-05-13 15:40;7;;-3;4
2024-05-13 15:50;1;;-2;-1
2024-05-13 16:00;-5;;-4;-9
2024-05-13 16:10;-11;;-4;-15
2024-05-13 16:20;-16;;-5;-21
2024-05-13 16:30;-22;;-5;-27
2024-05-13 16:40;-27;;-5;-32
2024-05-13 16:50;-33;;-5;-38
2024-05-13 17:00;-38;;-6;-44
2024-05-13 17:10;-44;;-6;-50
2024-05-13 17:20;-50;;-6;-56
2024-05-13 17:30;-56;;-6;-62
2024-05-13 17:40;-63;;-5;-68
2024-05-13 17:50;-69;;-6;-75
2024-05-13 18:00;-75;;-6;-81
2024-05-13 18:10;-81;;-6;-87
2024-05-13 18:20;-87;;-6;-93
2024-05-13 18:30;-92;;-6;-98
2024-05-13 18:40;-96;;-7;-103
2024-05-13 18:50;-100;;-8;-108
2024-05-13 19:00;-103;;-9;-112
2024-05-13 19:10;-106;;-9;-115
2024-05-13 19:20;-107;;-10;-117
2024-05-13 19:30;-107;;-11;-118
2024-05-13 19:40;-107;;-10;-117
2024-05-13 19:50;-105;;-10;-115
2024-05-13 20:00;-102;;-10;-112
2024-05-13 20:10;-98;;-8;-106
2024-05-13 20:20;-92;;-6;-98
2024-05-13 20:30;-86;;-2;-88
2024-05-13 20:40;-79;;3;-76
2024-05-13 20:50;-72;;7;-65
2024-05-13 21:00;-65;;10;-55
2024-05-13 21:10;-58;;13;-45
2024-05-13 21:20;-51;;14;-37
2024-05-13 21:30;-44;;14;-30
2024-05-13 21:40;-38;;15;-23
2024-05-13 21:50;-32;;14;-18
2024-05-13 22:00;-27;;14;-13
2024-05-13 22:10;-22;;13;-9
2024-05-13 22:20;-17;;12;-5
2024-05-13 22:30;-12;;11;-1
2024-05-13 22:40;-7;;9;2
2024-05-13 22:50;-3;;9;6
2024-05-13 23:00;2;;8;10
2024-05-13 23:10;6;;7;13
2024-05-13 23:20;10;;7;17
2024-05-13 23:30;15;;5;20
2024-05-13 23:40;19;;4;23
2024-05-13 23:50;22;;4;26
2024-05-14 00:00;26;;4;30
2024-05-14 00:10;29;;4;33
2024-05-14 00:20;32;;4;36
2024-05-14 00:30;35;;3;38
2024-05-14 00:40;37;;4;41
2024-05-14 00:50;39;;4;43
2024-05-14 01:00;41;;4;45
2024-05-14 01:10;43;;4;47
2024-05-14 01:20;43;;5;48
2024-05-14 01:30;44;;5;49
2024-05-14 01:40;43;;6;49
2024-05-14 01:50;42;;6;48
2024-05-14 02:00;41;;6;47
2024-05-14 02:10;39;;5;44
2024-05-14 02:20;36;;5;41
2024-05-14 02:30;32;;5;37
2024-05-14 02:40;28;;4;32
2024-05-14 02:50;24;;2;26
2024-05-14 03:00;19;;1;20
2024-05-14 03:10;14;;0;14
2024-05-14 03:20;9;;-2;7
2024-05-14 03:30;3;;-1;2
2024-05-14 03:40;-2;;-2;-4
2024-05-14 03:50;-8;;-1;-9
2024-05-14 04:00;-13;;-2;-15
2024-05-14 04:10;-18;;-2;-20
2024-05-14 04:20;-23;;-2;-25
2024-05-14 04:30;-28;;-2;-30
2024-05-14 04:40;-32;;-3;-35
2024-05-14 04:50;-37;;-3;-40
2024-05-14 05:00;-41;;-3;-44
2024-05-14 05:10;-46;;-3;-49
2024-05-14 05:20;-51;;-3;-54
2024-05-14 05:30;-56;;-3;-59
2024-05-14 05:40;-61;;-3;-64
2024-05-14 05:50;-65;;-3;-68
2024-05-14 06:00;-70;;-3;-73
2024-05-14 06:10;-75;;-2;-77
2024-05-14 06:20;-80;;-2;-82
2024-05-14 06:30;-84;;-2;-86
2024-05-14 06:40;-88;;-2;-90
2024-05-14 06:50;-91;;-3;-94
2024-05-14 07:00;-94;;-3;-97
2024-05-14 07:10;-96;;-4;-100
2024-05-14 07:20;-97;;-5;-102
2024-05-14 07:30;-97;;-6;-103
2024-05-14 07:40;-97;;-6;-103
2024-05-14 07:50;-95;;-6;-101
2024-05-14 08:00;-93;;-5;-98
2024-05-14 08:10;-89;;-4;-93
2024-05-14 08:20;-84;;-2;-86
2024-05-14 08:30;-79;;3;-76
2024-05-14 08:40;-72;;6;-66
2024-05-14 08:50;-65;;11;-54
2024-05-14 09:00;-58;;14;-44
2024-05-14 09:10;-50;;16;-34
2024-05-14 09:20;-42;;18;-24
2024-05-14 09:30;-34;;18;-16
2024-05-14 09:40;-27;;19;-8
2024-05-14 09:50;-19;;18;-1
2024-05-14 10:00;-13;;16;3
2024-05-14 10:10;-6;;15;9
2024-05-14 10:20;0;;14;14
2024-05-14 10:30;6;;13;19
2024-05-14 10:40;11;;13;24
2024-05-14 10:50;16;;13;29
2024-05-14 11:00;22;;12;34
2024-05-14 11:10;27;;12;39
2024-05-14 11:20;32;;12;44
2024-05-14 11:30;37;;11;48
2024-05-14 11:40;42;;10;52
2024-05-14 11:50;46;;10;56
2024-05-14 12:00;51;;9;60
2024-05-14 12:10;55;;9;64
2024-05-14 12:20;59;;9;68
2024-05-14 12:30;62;;10;72
2024-05-14 12:40;66;;9;75
2024-05-14 12:50;69;;9;78
2024-05-14 13:00;71;;9;80
2024-05-14 13:10;74;;8;82
2024-05-14 13:20;75;;8;83
2024-05-14 13:30;77;;7;84
2024-05-14 13:40;78;;6;84
2024-05-14 13:50;78;;6;84
2024-05-14 14:00;77;;7;84
2024-05-14 14:10;76;;6;82
2024-05-14 14:20;74;;5;79
2024-05-14 14:30;71;;5;76
2024-05-14 14:40;67;;5;72
2024-05-14 14:50;63;;4;67
2024-05-14 15:00;58;;3;61
2024-05-14 15:10;53;;2;55
2024-05-14 15:20;47;;2;49
2024-05-14 15:30;41;;2;43
2024-05-14 15:40;35;;2;37
2024-05-14 15:50;29;;2;31
2024-05-14 16:00;22;;2;24
2024-05-14 16:10;16;;2;18
2024-05-14 16:20;10;;1;11
2024-05-14 16:30;4;;1;5
2024-05-14 16:40;-2;;2;0
2024-05-14 16:50;-7;;1;-6
2024-05-14 17:00;-13;;1;-12
2024-05-14 17:10;-18;;1;-17
2024-05-14 17:20;-23;;0;-23
2024-05-14 17:30;-28;;0;-28
2024-05-14 17:40;-33;;-1;-34
2024-05-14 17:50;-39;;0;-39
2024-05-14 18:00;-44;;-1;-45
2024-05-14 18:10;-49;;-1;-50
2024-05-14 18:20;-55;;-1;-56
2024-05-14 18:30;-60;;-2;-62
2024-05-14 18:40;-66;;-1;-67
2024-05-14 18:50;-71;;-2;-73
2024-05-14 19:00;-76;;-2;-78
2024-05-14 19:10;-80;;-3;-83
2024-05-14 19:20;-84;;-3;-87
2024-05-14 19:30;-88;;-3;-91
2024-05-14 19:40;-91;;-3;-94
2024-05-14 19:50;-93;;-3;-96
2024-05-14 20:00;-94;;-4;-98
2024-05-14 20:10;-95;;-3;-98
2024-05-14 20:20;-94;;-4;-98
2024-05-14 20:30;-93;;-4;-97
2024-05-14 20:40;-91;;-4;-95
2024-05-14 20:50;-88;;-3;-91
2024-05-14 21:00;-84;;-1;-85
2024-05-14 21:10;-80;;2;-78
2024-05-14 21:20;-75;;5;-70
2024-05-14 21:30;-69;;7;-62
2024-05-14 21:40;-64;;11;-53
2024-05-14 21:50;-58;;12;-46
2024-05-14 22:00;-52;;14;-38
2024-05-14 22:10;-47;;16;-31
2024-05-14 22:20;-41;;16;-25
2024-05-14 22:30;-36;;16;-20
2024-05-14 22:40;-31;;16;-15
2024-05-14 22:50;-26;;15;-11
2024-05-14 23:00;-22;;14;-8
2024-05-14 23:10;-17;;13;-4
2024-05-14 23:20;-13;;12;-1
2024-05-14 23:30;-9;;11;2
2024-05-14 23:40;-5;;10;5
2024-05-14 23:50;-1;;9;8
2024-05-15 00:00;3;;8;11
2024-05-15 00:10;6;;8;14
2024-05-15 00:20;10;;6;16
2024-05-15 00:30;13;;6;19
2024-05-15 00:40;16;;6;22
2024-05-15 00:50;19;;5;24
2024-05-15 01:00;22;;5;27
2024-05-15 01:10;25;;4;29
2024-05-15 01:20;27;;5;32
2024-05-15 01:30;29;;5;34
2024-05-15 01:40;31;;5;36
2024-05-15 01:50;32;;5;37
2024-05-15 02:00;33;;6;39
2024-05-15 02:10;33;;6;39
2024-05-15 02:20;33;;7;40
2024-05-15 02:30;33;;6;39
2024-05-15 02:40;32;;6;38
2024-05-15 02:50;30;;7;37
2024-05-15 03:00;28;;6;34
2024-05-15 03:10;25;;6;31
2024-05-15 03:20;22;;6;28
2024-05-15 03:30;18;;5;23
2024-05-15 03:40;14;;5;19
2024-05-15 03:50;10;;4;14
2024-05-15 04:00;5;;4;9
2024-05-15 04:10;1;;3;4
2024-05-15 04:20;-4;;3;-1
2024-05-15 04:30;-9;;3;-6
2024-05-15 04:40;-13;;2;-11
2024-05-15 04:50;-18;;2;-16
2024-05-15 05:00;-22;;1;-21
2024-05-15 05:10;-27;;1;-26
2024-05-15 05:20;-31;;1;-30
2024-05-15 05:30;-36;;1;-35
2024-05-15 05:40;-40;;1;-39
2024-05-15 05:50;-44;;0;-44
2024-05-15 06:00;-49;;1;-48
2024-05-15 06:10;-53;;1;-52
2024-05-15 06:20;-57;;1;-56
2024-05-15 06:30;-61;;1;-60
2024-05-15 06:40;-65;;2;-63
2024-05-15 06:50;-69;;2;-67
2024-05-15 07:00;-73;;3;-70
2024-05-15 07:10;-77;;3;-74
2024-05-15 07:20;-80;;3;-77
2024-05-15 07:30;-83;;3;-80
2024-05-15 07:40;-85;;3;-82
2024-05-15 07:50;-87;;3;-84
2024-05-15 08:00;-88;;3;-85
2024-05-15 08:10;-88;;2;-86
2024-05-15 08:20;-88;;3;-85
2024-05-15 08:30;-87;;3;-84
2024-05-15 08:40;-85;;4;-81
2024-05-15 08:50;-82;;4;-78
2024-05-15 09:00;-78;;6;-72
2024-05-15 09:10;-74;;8;-66
2024-05-15 09:20;-69;;11;-58
2024-05-15 09:30;-64;;14;-50
2024-05-15 09:40;-58;;17;-41
2024-05-15 09:50;-52;;20;-32
2024-05-15 10:00;-46;;23;-23
2024-05-15 10:10;-39;;23;-16
2024-05-15 10:20;-33;;24;-9
2024-05-15 10:30;-27;;25;-2
2024-05-15 10:40;-20;;23;3
2024-05-15 10:50;-14;;22;8
2024-05-15 11:00;-8;;21;13
2024-05-15 11:10;-3;;21;18
2024-05-15 11:20;3;;20;23
2024-05-15 11:30;8;;20;28
2024-05-15 11:40;14;;19;33
2024-05-15 11:50;19;;18;37
2024-05-15 12:00;24;;18;42
2024-05-15 12:10;28;;18;46
2024-05-15 12:20;33;;18;51
2024-05-15 12:30;37;;18;55
2024-05-15 12:40;41;;18;59
2024-05-15 12:50;45;;18;63
2024-05-15 13:00;49;;18;67
2024-05-15 13:10;53;;18;71
2024-05-15 13:20;56;;19;75
2024-05-15 13:30;60;;18;78
2024-05-15 13:40;62;;18;80
2024-05-15 13:50;65;;17;82
2024-05-15 14:00;67;;17;84
2024-05-15 14:10;69;;16;85
2024-05-15 14:20;70;;15;85
2024-05-15 14:30;71;;15;86
2024-05-15 14:40;71;;14;85
2024-05-15 14:50;70;;14;84
2024-05-15 15:00;69;;14;83
2024-05-15 15:10;67;;13;80
2024-05-15 15:20;65;;12;77
2024-05-15 15:30;62;;12;74
2024-05-15 15:40;58;;11;69
2024-05-15 15:50;54;;11;65
2024-05-15 16:00;49;;10;59
2024-05-15 16:10;44;;10;54
2024-05-15 16:20;39;;10;49
2024-05-15 16:30;34;;9;43
2024-05-15 16:40;28;;9;37
2024-05-15 16:50;23;;7;30
2024-05-15 17:00;17;;7;24
2024-05-15 17:10;11;;7;18
2024-05-15 17:20;6;;6;12
2024-05-15 17:30;0;;6;6
2024-05-15 17:40;-5;;6;1
2024-05-15 17:50;-10;;5;-5
2024-05-15 18:00;-15;;5;-10
2024-05-15 18:10;-20;;5;-15
2024-05-15 18:20;-25;;4;-21
2024-05-15 18:30;-30;;4;-26
2024-05-15 18:40;-35;;4;-31
2024-05-15 18:50;-40;;4;-36
2024-05-15 19:00;-45;;4;-41
2024-05-15 19:10;-50;;4;-46
2024-05-15 19:20;-55;;4;-51
2024-05-15 19:30;-59;;3;-56
2024-05-15 19:40;-64;;3;-61
2024-05-15 19:50;-68;;2;-66
2024-05-15 20:00;-72;;2;-70
2024-05-15 20:10;-75;;1;-74
2024-05-15 20:20;-78;;1;-77
2024-05-15 20:30;-81;;1;-80
2024-05-15 20:40;-82;;-1;-83
2024-05-15 20:50;-83;;-1;-84
2024-05-15 21:00;-84;;-1;-85
2024-05-15 21:10;-83;;-3;-86
2024-05-15 21:20;-82;;-4;-86
2024-05-15 21:30;-81;;-3;-84
2024-05-15 21:40;-79;;-3;-82
2024-05-15 21:50;-76;;-2;-78
2024-05-15 22:00;-73;;0;-73
2024-05-15 22:10;-69;;3;-66
2024-05-15 22:20;-66;;7;-59
2024-05-15 22:30;-62;;10;-52
2024-05-15 22:40;-57;;12;-45
2024-05-15 22:50;-53;;15;-38
2024-05-15 23:00;-48;;16;-32
2024-05-15 23:10;-44;;18;-26
2024-05-15 23:20;-39;;18;-21
2024-05-15 23:30;-35;;18;-17
2024-05-15 23:40;-31;;18;-13
2024-05-15 23:50;-27;;18;-9
2024-05-16 00:00;-23;;18;-5
2024-05-16 00:10;-19;;17;-2
2024-05-16 00:20;-15;;16;1
2024-05-16 00:30;-11;;15;4
2024-05-16 00:40;-8;;15;7
2024-05-16 00:50;-4;;14;10
2024-05-16 01:00;0;;12;12
2024-05-16 01:10;3;;12;15
2024-05-16 01:20;6;;11;17
2024-05-16 01:30;10;;10;20
2024-05-16 01:40;13;;9;22
2024-05-16 01:50;15;;9;24
2024-05-16 02:00;18;;8;26
2024-05-16 02:10;20;;8;28
2024-05-16 02:20;22;;8;30
2024-05-16 02:30;24;;8;32
2024-05-16 02:40;25;;9;34
2024-05-16 02:50;26;;9;35
2024-05-16 03:00;26;;10;36
2024-05-16 03:10;27;;9;36
2024-05-16 03:20;26;;10;36
2024-05-16 03:30;25;;10;35
2024-05-16 03:40;24;;10;34
2024-05-16 03:50;22;;10;32
2024-05-16 04:00;20;;10;30
2024-05-16 04:10;18;;9;27
2024-05-16 04:20;15;;9;24
2024-05-16 04:30;12;;8;20
2024-05-16 04:40;8;;8;16
2024-05-16 04:50;5;;7;12
2024-05-16 05:00;1;;6;7
2024-05-16 05:10;-3;;6;3
2024-05-16 05:20;-7;;6;-1
2024-05-16 05:30;-11;;6;-5
2024-05-16 05:40;-15;;5;-10
2024-05-16 05:50;-19;;5;-14
2024-05-16 06:00;-23;;4;-19
2024-05-16 06:10;-28;;5;-23
2024-05-16 06:20;-32;;4;-28
2024-05-16 06:30;-36;;4;-32
2024-05-16 06:40;-40;;4;-36
2024-05-16 06:50;-44;;3;-41
2024-05-16 07:00;-48;;3;-45
2024-05-16 07:10;-52;;3;-49
2024-05-16 07:20;-56;;4;-52
2024-05-16 07:30;-60;;4;-56
2024-05-16 07:40;-63;;4;-59
2024-05-16 07:50;-67;;5;-62
2024-05-16 08:00;-70;;5;-65
2024-05-16 08:10;-73;;5;-68
2024-05-16 08:20;-75;;4;-71
2024-05-16 08:30;-77;;4;-73
2024-05-16 08:40;-79;;4;-75